Chickering American River Reserve, California Weather observations

Data are for 10 minute period ending at time listed.
 Day   Time   Solar   Ave.   Ave.  Ave.  Vector  Max.   Baro.   Total    
  of    of     Rad.   Air    Rel.  Wind   Wind   Wind  Press.  Precip.   
Year   Day            Temp.  Hum.  Speed  Dir.   Gust                    
2026   (PST)  Kw/m2    F      %     mph   deg.    mph    mb.     in.     
-------------------------------------------------------------------------
 125   18:10   0.03   45.1    96    0.4    62     2.0   816.8    0.00 
 125   18:20   0.02   44.9    96    0.3    55     1.6   816.9    0.00 
 125   18:30   0.02   44.7    96    0.3    56     2.3   816.9    0.00 
 125   18:40   0.01   44.7    96    0.1    40     1.5   817.0    0.00 
 125   18:50   0.00   45.0    96    0.0     0     0.0   817.0    0.00 
 125   19:00   0.00   45.0    96    0.0     0     0.0   817.0    0.00 
 125   19:10   0.00   45.4    96    0.2   267     1.3   817.1    0.00 
 125   19:20   0.00   45.5    96    0.1    17     1.3   817.2    0.00 
 125   19:30   0.00   45.5    96    0.1   270     2.3   817.4    0.00 
 125   19:40   0.00   45.5    95    1.0   204     3.4   817.5    0.00 
 125   19:50   0.00   45.4    96    0.2    68     1.6   817.5    0.00 
 125   20:00   0.00   45.4    96    0.8    42     3.1   817.7    0.00 
 125   20:10   0.00   45.0    96    0.1   171     1.2   817.8    0.00 
 125   20:20   0.00   44.8    96    0.0     0     0.0   817.9    0.00 
 125   20:30   0.00   44.8    96    0.4    64     1.5   817.9    0.00 
 125   20:40   0.00   44.7    96    0.1    31     1.0   818.0    0.00 
 125   20:50   0.00   44.5    96    0.0    31     0.4   818.0    0.00 
 125   21:00   0.00   44.5    96    0.0     0     0.0   818.1    0.00 
 125   21:10   0.00   44.6    96    0.0    31     0.5   818.1    0.00 
 125   21:20   0.00   44.5    96    0.0    31     0.7   818.2    0.00 
 125   21:30   0.00   44.4    96    0.5    50     2.0   818.3    0.00 
 125   21:40   0.00   44.1    96    0.5    30     2.2   818.3    0.00 
 125   21:50   0.00   44.1    97    0.0     0     0.0   818.3    0.00 
 125   22:00   0.00   44.1    96    0.0     0     0.0   818.4    0.00 
 125   22:10   0.00   44.2    96    0.0     0     0.0   818.5    0.00 
 125   22:20   0.00   44.1    96    0.0    33     0.7   818.6    0.00 
 125   22:30   0.00   44.1    96    0.1    33     0.8   818.7    0.00 
 125   22:40   0.00   44.1    96    0.1    93     1.0   818.7    0.00 
 125   22:50   0.00   44.0    96    0.1    72     0.7   818.8    0.00 
 125   23:00   0.00   43.9    96    0.0     0     0.0   818.9    0.00 
 125   23:10   0.00   43.6    96    0.0     0     0.0   819.0    0.00 
 125   23:20   0.00   43.5    96    0.0   146     1.0   819.1    0.00 
 125   23:30   0.00   43.3    96    0.3   153     1.4   819.1    0.00 
 125   23:40   0.00   43.1    96    0.3   190     2.3   819.2    0.00 
 125   23:50   0.00   42.9    96    0.2   147     1.8   819.2    0.00 
 126    0:00   0.00   42.8    96    0.3   186     2.1   819.3    0.00 
 126    0:10   0.00   42.7    96    0.3   176     3.4   819.3    0.00 
 126    0:20   0.00   42.6    96    0.4   178     2.5   819.3    0.00 
 126    0:30   0.00   42.6    96    0.1   197     1.8   819.3    0.00 
 126    0:40   0.00   42.4    96    0.3    57     3.0   819.3    0.00 
 126    0:50   0.00   42.1    96    0.2    49     1.1   819.3    0.00 
 126    1:00   0.00   41.7    96    0.1    46     0.9   819.3    0.00 
 126    1:10   0.00   41.4    96    0.3   174     2.1   819.2    0.00 
 126    1:20   0.00   40.8    96    0.2   185     1.6   819.2    0.00 
 126    1:30   0.00   40.0    96    0.0     0     0.0   819.2    0.00 
 126    1:40   0.00   39.3    95    0.1   172     1.2   819.2    0.00 
 126    1:50   0.00   38.7    95    0.0     0     0.0   819.3    0.00 
 126    2:00   0.00   38.2    95    0.0     0     0.0   819.3    0.00 
 126    2:10   0.00   37.8    96    0.0     0     0.0   819.4    0.00 
 126    2:20   0.00   37.6    96    0.1   202     1.3   819.5    0.00 
 126    2:30   0.00   37.3    96    0.1   202     1.3   819.5    0.00 
 126    2:40   0.00   37.2    96    0.1   202     1.4   819.6    0.00 
 126    2:50   0.00   37.2    96    0.1   220     1.7   819.6    0.00 
 126    3:00   0.00   37.3    97    0.5   224     2.0   819.6    0.00 
 126    3:10   0.00   37.4    97    0.3   172     1.4   819.6    0.00 
 126    3:20   0.00   37.5    97    0.5   184     2.6   819.6    0.00 
 126    3:30   0.00   37.7    97    0.8   203     2.7   819.8    0.00 
 126    3:40   0.00   37.9    97    0.0     0     0.0   819.8    0.00 
 126    3:50   0.00   38.1    97    0.7   202     1.9   819.9    0.00 
 126    4:00   0.00   39.3    97    1.4   181     2.7   819.9    0.00 
 126    4:10   0.00   40.2    97    1.5   203     2.5   820.0    0.00 
 126    4:20   0.00   40.9    97    1.3   189     2.6   820.1    0.00 
 126    4:30   0.00   40.6    97    1.3   192     2.5   820.2    0.00 
 126    4:40   0.00   40.9    97    1.4   198     2.6   820.3    0.00 
 126    4:50   0.00   40.8    97    1.0   189     2.0   820.5    0.00 
 126    5:00   0.00   40.9    97    1.7   197     2.6   820.6    0.00 
 126    5:10   0.01   41.0    97    1.4   205     2.7   820.6    0.00 
 126    5:20   0.01   41.5    98    1.3   197     3.3   820.7    0.00 
 126    5:30   0.01   41.0    97    0.7   187     2.3   820.8    0.00 
 126    5:40   0.01   40.9    97    0.4   213     2.1   820.9    0.00 
 126    5:50   0.02   41.3    97    0.6   185     1.5   821.1    0.00 
 126    6:00   0.03   41.3    97    0.9   192     2.2   821.2    0.00 
 126    6:10   0.04   42.7    97    0.2   174     2.0   821.3    0.00 
 126    6:20   0.08   44.2    97    0.9   217     2.0   821.4    0.00 
 126    6:30   0.04   46.2    97    0.2   186     1.5   821.5    0.00 
 126    6:40   0.04   47.6    91    0.7   178     3.0   821.6    0.00 
 126    6:50   0.05   48.6    87    0.9   174     3.1   821.7    0.00 
 126    7:00   0.07   49.7    86    0.6   177     2.5   821.7    0.00 
 126    7:10   0.14   50.6    83    0.4   188     1.3   821.7    0.00 
 126    7:20   0.12   51.4    85    0.4   153     2.8   821.8    0.00 
 126    7:30   0.03   52.6    73    0.5   128     2.0   821.7    0.00 
 126    7:40   0.15   54.0    69    0.7    41     3.0   821.7    0.00 
 126    7:50   0.47   56.2    62    0.8   173     2.0   821.7    0.00 
 126    8:00   0.56   58.0    58    1.1   187     4.9   821.8    0.00 
 126    8:10   0.47   59.3    51    0.8   115     5.8   821.9    0.00 
 126    8:20   0.62   60.3    50    1.2    55     4.7   821.9    0.00 
 126    8:30   0.55   61.4    47    2.0    58     5.6   822.0    0.00 
 126    8:40   0.70   61.3    44    3.2    43     7.2   822.0    0.00 
 126    8:50   0.69   61.8    44    2.1    56     6.9   821.9    0.00 
 126    9:00   0.75   62.5    42    1.6    52    10.0   822.0    0.00 
 126    9:10   0.75   64.1    43    1.0    50     4.3   822.0    0.00 
 126    9:20   0.82   64.0    38    1.1   326     6.2   822.0    0.00 
 126    9:30   0.85   64.5    39    1.8    52     8.0   822.0    0.00 
 126    9:40   0.87   64.4    37    2.2   325     5.1   822.0    0.00 
 126    9:50   0.89   65.2    37    2.9    29    11.2   822.1    0.00 
 126   10:00   0.91   65.8    39    2.1    54     5.6   822.1    0.00 
 126   10:10   0.93   65.8    37    2.6    46     7.0   822.2    0.00 
 126   10:20   0.95   65.8    38    3.3    20     8.8   822.2    0.00 
 126   10:30   0.97   66.1    37    3.0    13     7.7   822.2    0.00 
 126   10:40   0.98   67.0    35    3.7    36     9.6   822.3    0.00 
 126   10:50   0.99   67.5    34    3.4    30     8.6   822.2    0.00 
 126   11:00   1.01   67.7    32    3.9    23    13.4   822.2    0.00 
 126   11:10   1.02   68.0    30    3.3    32     8.1   822.3    0.00 
 126   11:20   1.02   69.1    30    3.5    31     8.8   822.3    0.00 
 126   11:30   1.03   68.6    28    3.4    49    11.0   822.3    0.00 
 126   11:40   1.03   69.2    28    3.6    28     8.1   822.3    0.00 
 126   11:50   1.04   70.1    27    2.1    44     9.1   822.3    0.00 
 126   12:00   1.04   69.1    26    3.4    47    12.3   822.2    0.00 
 126   12:10   1.04   70.0    28    3.3    40     9.3   822.2    0.00 
 126   12:20   1.04   70.0    27    2.2    19     5.5   822.1    0.00 
 126   12:30   1.03   70.9    27    2.4    44     8.6   822.1    0.00 
 126   12:40   1.03   71.1    28    2.9    46    11.8   822.0    0.00 
 126   12:50   1.02   70.7    26    2.5    31     6.7   822.0    0.00 
 126   13:00   1.01   71.6    26    1.9   326     6.3   821.9    0.00 
 126   13:10   1.00   72.0    28    2.1     5     5.0   821.9    0.00 
 126   13:20   0.99   72.5    26    1.7   332     6.3   821.9    0.00 
 126   13:30   0.97   72.1    27    3.4    30     8.3   821.9    0.00 
 126   13:40   0.96   72.2    26    1.4     6     5.7   821.9    0.00 
 126   13:50   0.94   72.2    25    1.5   326     4.2   821.8    0.00 
 126   14:00   0.92   72.5    26    2.3    30     6.9   821.8    0.00 
 126   14:10   0.90   72.1    27    2.0     1     7.6   821.7    0.00 
 126   14:20   0.88   71.9    24    2.6    56     6.9   821.6    0.00 
 126   14:30   0.85   71.3    24    2.5    51     8.5   821.6    0.00 
 126   14:40   0.83   71.4    22    1.4   274     3.4   821.5    0.00 
 126   14:50   0.81   72.1    30    1.2    44     3.5   821.4    0.00 
 126   15:00   0.78   72.3    26    1.0   323     3.7   821.3    0.00 
 126   15:10   0.74   71.7    36    1.6    16     5.8   821.3    0.00 
 126   15:20   0.72   70.6    44    2.2     0     5.7   821.2    0.00 
 126   15:30   0.68   70.3    48    1.9    14     5.0   821.1    0.00 
 126   15:40   0.65   70.1    49    1.7   349     4.5   821.1    0.00 
 126   15:50   0.62   69.7    52    1.4     5     5.6   821.1    0.00 
 126   16:00   0.58   68.4    55    2.1     0     7.5   821.1    0.00 
 126   16:10   0.17   67.5    58    1.7    44     4.3   821.2    0.00 
 126   16:20   0.22   67.1    56    1.6    28     5.3   821.2    0.00 
 126   16:30   0.44   66.7    55    2.0    40     6.7   821.3    0.00 
 126   16:40   0.44   66.2    53    1.9    21     7.2   821.4    0.00 
 126   16:50   0.37   65.2    52    1.5    60     5.9   821.5    0.00 
 126   17:00   0.07   63.8    54    1.0    87     2.9   821.5    0.00 
 126   17:10   0.03   63.1    53    1.3    32     3.7   821.6    0.00 
 126   17:20   0.03   62.8    54    0.6    46     3.0   821.6    0.00 
 126   17:30   0.03   61.8    57    0.3     4     2.3   821.7    0.00 
 126   17:40   0.02   61.3    58    0.4    56     1.9   821.8    0.00 
 126   17:50   0.02   60.6    60    0.3   178     1.4   821.8    0.00 
 126   18:00   0.02   60.1    62    0.2   164     1.7   821.8    0.00 

Return to Chickering American River Reserve graphs page.


Western Regional Climate Center,wrcc@dri.edu